Wetterdaten: Donnerstag, 16.02.2017
Datum Zeit Temp. A. Feuchte A. Luftdruck Regen Wind Richtung Richtung Sonnenschein Solar
16.02.2017 00:04 8,5 C 70 % 1029,9 hPa 0,0 l/m 6,0 km/h (2 Bft) S-SO22.5 150 0 min 0 W/m
16.02.2017 00:09 8,5 C 70 % 1029,9 hPa 0,0 l/m 7,5 km/h (2 Bft) S-SO22.5 150 0 min 0 W/m
16.02.2017 00:14 8,5 C 70 % 1029,9 hPa 0,0 l/m 6,1 km/h (2 Bft) SO 140 0 min 0 W/m
16.02.2017 00:19 8,6 C 70 % 1029,9 hPa 0,0 l/m 9,6 km/h (2 Bft) SO 145 0 min 0 W/m
16.02.2017 00:24 8,6 C 70 % 1029,9 hPa 0,0 l/m 9,4 km/h (2 Bft) SO22.5 140 0 min 0 W/m
16.02.2017 00:29 8,7 C 71 % 1029,9 hPa 0,0 l/m 9,4 km/h (2 Bft) S-SO22.5 150 0 min 0 W/m
16.02.2017 00:34 8,8 C 71 % 1029,9 hPa 0,0 l/m 9,0 km/h (2 Bft) S-SO 160 0 min 0 W/m
16.02.2017 00:39 8,8 C 71 % 1029,9 hPa 0,0 l/m 10,6 km/h (2 Bft) S-SO22.5 160 0 min 0 W/m
16.02.2017 00:44 8,8 C 71 % 1029,9 hPa 0,0 l/m 10,3 km/h (2 Bft) S-SO22.5 160 0 min 0 W/m
16.02.2017 00:49 8,8 C 70 % 1029,9 hPa 0,0 l/m 7,2 km/h (2 Bft) S-SO22.5 160 0 min 0 W/m
16.02.2017 00:54 8,7 C 71 % 1029,9 hPa 0,0 l/m 8,1 km/h (2 Bft) S-SO22.5 160 0 min 0 W/m
16.02.2017 00:59 8,8 C 70 % 1029,9 hPa 0,0 l/m 10,9 km/h (2 Bft) SO22.5 145 0 min 0 W/m
16.02.2017 01:04 8,8 C 70 % 1029,9 hPa 0,0 l/m 7,1 km/h (2 Bft) S-SO22.5 160 0 min 0 W/m
16.02.2017 01:09 8,8 C 70 % 1029,9 hPa 0,0 l/m 5,2 km/h (1 Bft) S 175 0 min 0 W/m
16.02.2017 01:14 8,8 C 70 % 1029,9 hPa 0,0 l/m 10,1 km/h (2 Bft) S22.5 180 0 min 0 W/m
16.02.2017 01:19 8,8 C 71 % 1029,9 hPa 0,0 l/m 12,2 km/h (2 Bft) S-SO22.5 160 0 min 0 W/m
16.02.2017 01:24 8,8 C 71 % 1029,9 hPa 0,0 l/m 9,6 km/h (2 Bft) S 175 0 min 0 W/m
16.02.2017 01:29 8,9 C 71 % 1029,9 hPa 0,0 l/m 8,9 km/h (2 Bft) S22.5 190 0 min 0 W/m
16.02.2017 01:34 8,8 C 71 % 1029,9 hPa 0,0 l/m 11,0 km/h (2 Bft) S22.5 170 0 min 0 W/m
16.02.2017 01:39 8,8 C 71 % 1029,9 hPa 0,0 l/m 9,0 km/h (2 Bft) S-SO22.5 165 0 min 0 W/m
16.02.2017 01:44 8,8 C 71 % 1029,9 hPa 0,0 l/m 9,0 km/h (2 Bft) S-SO22.5 165 0 min 0 W/m
16.02.2017 01:49 8,9 C 71 % 1029,9 hPa 0,0 l/m 9,8 km/h (2 Bft) S22.5 175 0 min 0 W/m
16.02.2017 01:54 8,9 C 71 % 1029,9 hPa 0,0 l/m 11,3 km/h (2 Bft) S22.5 180 0 min 0 W/m
16.02.2017 01:59 8,9 C 71 % 1029,9 hPa 0,0 l/m 11,1 km/h (2 Bft) S22.5 175 0 min 0 W/m
16.02.2017 02:04 8,8 C 71 % 1029,9 hPa 0,0 l/m 6,5 km/h (2 Bft) S 180 0 min 0 W/m
16.02.2017 02:09 8,8 C 71 % 1029,9 hPa 0,0 l/m 5,2 km/h (1 Bft) S 190 0 min 0 W/m
16.02.2017 02:14 8,7 C 71 % 1029,9 hPa 0,0 l/m 6,1 km/h (2 Bft) S 175 0 min 0 W/m
16.02.2017 02:19 8,5 C 71 % 1029,9 hPa 0,0 l/m 4,3 km/h (1 Bft) S 175 0 min 0 W/m
16.02.2017 02:25 8,2 C 71 % 1029,9 hPa 0,0 l/m 0,0 km/h (0 Bft) S 175 0 min 0 W/m
16.02.2017 02:29 8,2 C 71 % 1029,9 hPa 0,0 l/m 0,0 km/h (0 Bft) S 175 0 min 0 W/m
16.02.2017 02:34 8,0 C 72 % 1029,9 hPa 0,0 l/m 0,0 km/h (0 Bft) S 175 0 min 0 W/m
16.02.2017 02:39 8,1 C 72 % 1029,9 hPa 0,0 l/m 5,6 km/h (2 Bft) S-SW 205 0 min 0 W/m
16.02.2017 02:44 8,2 C 73 % 1029,9 hPa 0,0 l/m 7,2 km/h (2 Bft) S-SW 205 0 min 0 W/m
16.02.2017 02:49 8,4 C 73 % 1029,9 hPa 0,0 l/m 5,4 km/h (2 Bft) S-SW 205 0 min 0 W/m
16.02.2017 02:55 8,0 C 72 % 1029,9 hPa 0,0 l/m 0,0 km/h (0 Bft) S-SW 205 0 min 0 W/m
16.02.2017 02:59 7,8 C 73 % 1029,9 hPa 0,0 l/m 8,1 km/h (2 Bft) S 185 0 min 0 W/m
16.02.2017 03:04 7,6 C 74 % 1029,9 hPa 0,0 l/m 8,1 km/h (2 Bft) S 185 0 min 0 W/m
16.02.2017 03:09 7,8 C 75 % 1029,9 hPa 0,0 l/m 6,9 km/h (2 Bft) S-SO22.5 165 0 min 0 W/m
16.02.2017 03:15 7,9 C 75 % 1029,9 hPa 0,0 l/m 8,9 km/h (2 Bft) S22.5 190 0 min 0 W/m
16.02.2017 03:19 8,0 C 75 % 1029,9 hPa 0,0 l/m 8,0 km/h (2 Bft) S 190 0 min 0 W/m
16.02.2017 03:24 8,0 C 75 % 1029,9 hPa 0,0 l/m 7,4 km/h (2 Bft) S 180 0 min 0 W/m
16.02.2017 03:29 7,8 C 75 % 1029,9 hPa 0,0 l/m 5,6 km/h (2 Bft) S-SO 160 0 min 0 W/m
16.02.2017 03:34 7,6 C 74 % 1029,9 hPa 0,0 l/m 5,8 km/h (2 Bft) S-SO 155 0 min 0 W/m
16.02.2017 03:39 7,4 C 74 % 1029,9 hPa 0,0 l/m 0,3 km/h (0 Bft) S-SO 150 0 min 0 W/m
16.02.2017 03:44 6,9 C 76 % 1029,9 hPa 0,0 l/m 6,4 km/h (2 Bft) S-SO 150 0 min 0 W/m
16.02.2017 03:49 6,9 C 76 % 1029,9 hPa 0,0 l/m 4,6 km/h (1 Bft) SO 145 0 min 0 W/m
16.02.2017 03:54 6,7 C 76 % 1029,9 hPa 0,0 l/m 5,9 km/h (2 Bft) SO 140 0 min 0 W/m
16.02.2017 03:59 6,8 C 78 % 1029,9 hPa 0,0 l/m 8,1 km/h (2 Bft) S-SO 160 0 min 0 W/m
16.02.2017 04:04 7,2 C 78 % 1029,9 hPa 0,0 l/m 8,2 km/h (2 Bft) S22.5 170 0 min 0 W/m
16.02.2017 04:09 7,2 C 78 % 1029,9 hPa 0,0 l/m 8,8 km/h (2 Bft) S-SO 160 0 min 0 W/m
16.02.2017 04:14 7,3 C 77 % 1029,9 hPa 0,0 l/m 7,7 km/h (2 Bft) S-SO22.5 160 0 min 0 W/m
16.02.2017 04:19 7,3 C 77 % 1029,9 hPa 0,0 l/m 7,6 km/h (2 Bft) S-SO 150 0 min 0 W/m
16.02.2017 04:24 7,3 C 77 % 1029,9 hPa 0,0 l/m 7,6 km/h (2 Bft) S-SO 150 0 min 0 W/m
16.02.2017 04:29 7,2 C 77 % 1029,9 hPa 0,0 l/m 6,3 km/h (2 Bft) SO 145 0 min 0 W/m
16.02.2017 04:34 6,9 C 77 % 1029,9 hPa 0,0 l/m 7,4 km/h (2 Bft) SO 145 0 min 0 W/m
16.02.2017 04:39 6,8 C 78 % 1029,9 hPa 0,0 l/m 4,0 km/h (1 Bft) S-SO22.5 150 0 min 0 W/m
16.02.2017 04:44 6,8 C 78 % 1029,9 hPa 0,0 l/m 9,5 km/h (2 Bft) S-SO22.5 150 0 min 0 W/m
16.02.2017 04:49 6,8 C 78 % 1029,9 hPa 0,0 l/m 9,9 km/h (2 Bft) S-SO22.5 160 0 min 0 W/m
16.02.2017 04:54 6,7 C 78 % 1029,9 hPa 0,0 l/m 9,9 km/h (2 Bft) S-SO 155 0 min 0 W/m
16.02.2017 04:59 6,8 C 78 % 1029,9 hPa 0,0 l/m 8,4 km/h (2 Bft) S-SO22.5 155 0 min 0 W/m
16.02.2017 05:04 6,8 C 78 % 1029,9 hPa 0,0 l/m 6,6 km/h (2 Bft) S-SO 150 0 min 0 W/m
16.02.2017 05:09 6,7 C 78 % 1029,9 hPa 0,0 l/m 8,1 km/h (2 Bft) S-SO 150 0 min 0 W/m
16.02.2017 05:14 6,6 C 78 % 1029,9 hPa 0,0 l/m 0,9 km/h (0 Bft) SO 145 0 min 0 W/m
16.02.2017 05:19 6,5 C 78 % 1029,9 hPa 0,0 l/m 6,6 km/h (2 Bft) SO 145 0 min 0 W/m
16.02.2017 05:24 6,5 C 79 % 1029,9 hPa 0,0 l/m 10,0 km/h (2 Bft) S-SO 160 0 min 0 W/m
16.02.2017 05:29 6,5 C 79 % 1029,9 hPa 0,0 l/m 9,6 km/h (2 Bft) S-SO22.5 165 0 min 0 W/m
16.02.2017 05:34 6,5 C 79 % 1029,9 hPa 0,0 l/m 8,4 km/h (2 Bft) S22.5 170 0 min 0 W/m
16.02.2017 05:39 6,5 C 79 % 1029,9 hPa 0,0 l/m 8,5 km/h (2 Bft) S22.5 170 0 min 0 W/m
16.02.2017 05:44 6,6 C 80 % 1029,9 hPa 0,0 l/m 7,8 km/h (2 Bft) S-SO 165 0 min 0 W/m
16.02.2017 05:49 6,8 C 80 % 1029,9 hPa 0,0 l/m 5,9 km/h (2 Bft) S 175 0 min 0 W/m
16.02.2017 05:54 6,8 C 80 % 1029,9 hPa 0,0 l/m 6,7 km/h (2 Bft) S 170 0 min 0 W/m
16.02.2017 05:59 6,8 C 80 % 1029,9 hPa 0,0 l/m 7,9 km/h (2 Bft) S-SO 150 0 min 0 W/m
16.02.2017 06:04 6,8 C 80 % 1029,9 hPa 0,0 l/m 7,8 km/h (2 Bft) S-SO22.5 150 0 min 0 W/m
16.02.2017 06:09 6,8 C 80 % 1029,9 hPa 0,0 l/m 6,7 km/h (2 Bft) S-SO22.5 160 0 min 0 W/m
16.02.2017 06:14 6,9 C 80 % 1029,9 hPa 0,0 l/m 6,8 km/h (2 Bft) S22.5 170 0 min 0 W/m
16.02.2017 06:19 6,9 C 80 % 1029,9 hPa 0,0 l/m 7,8 km/h (2 Bft) S-SO 150 0 min 0 W/m
16.02.2017 06:24 7,0 C 80 % 1029,9 hPa 0,0 l/m 8,1 km/h (2 Bft) SO22.5 140 0 min 0 W/m
16.02.2017 06:29 7,0 C 80 % 1029,9 hPa 0,0 l/m 6,3 km/h (2 Bft) S-SO 150 0 min 0 W/m
16.02.2017 06:35 6,9 C 79 % 1029,9 hPa 0,0 l/m 4,4 km/h (1 Bft) S-SO 150 0 min 0 W/m
16.02.2017 06:39 6,8 C 79 % 1029,9 hPa 0,0 l/m 6,6 km/h (2 Bft) S-SO 150 0 min 0 W/m
16.02.2017 06:44 6,7 C 79 % 1029,9 hPa 0,0 l/m 9,6 km/h (2 Bft) S-SO22.5 160 0 min 0 W/m
16.02.2017 06:49 6,7 C 80 % 1029,9 hPa 0,0 l/m 9,0 km/h (2 Bft) S-SO22.5 165 0 min 0 W/m
16.02.2017 06:54 6,6 C 79 % 1029,9 hPa 0,0 l/m 9,1 km/h (2 Bft) S-SO 165 0 min 0 W/m
16.02.2017 06:59 6,5 C 80 % 1029,9 hPa 0,0 l/m 10,3 km/h (2 Bft) S-SO 160 0 min 0 W/m
16.02.2017 07:04 6,5 C 80 % 1029,9 hPa 0,0 l/m 8,9 km/h (2 Bft) S-SO22.5 160 0 min 0 W/m
16.02.2017 07:09 6,4 C 80 % 1029,9 hPa 0,0 l/m 9,5 km/h (2 Bft) S-SO22.5 165 0 min 0 W/m
16.02.2017 07:14 6,4 C 80 % 1029,9 hPa 0,0 l/m 10,5 km/h (2 Bft) S 170 0 min 0 W/m
16.02.2017 07:19 6,4 C 80 % 1029,9 hPa 0,0 l/m 8,1 km/h (2 Bft) S-SO 165 0 min 0 W/m
16.02.2017 07:24 6,4 C 80 % 1029,9 hPa 0,0 l/m 10,3 km/h (2 Bft) S-SO22.5 165 0 min 0 W/m
16.02.2017 07:29 6,2 C 80 % 1029,9 hPa 0,0 l/m 11,3 km/h (2 Bft) S-SO22.5 165 0 min 0 W/m
16.02.2017 07:34 6,2 C 80 % 1029,9 hPa 0,0 l/m 9,2 km/h (2 Bft) S-SO22.5 165 0 min 0 W/m
16.02.2017 07:39 6,1 C 80 % 1029,9 hPa 0,0 l/m 10,0 km/h (2 Bft) S-SO22.5 160 0 min 0 W/m
16.02.2017 07:44 6,2 C 80 % 1029,9 hPa 0,0 l/m 12,3 km/h (2 Bft) S22.5 170 0 min 0 W/m
16.02.2017 07:49 6,2 C 80 % 1029,9 hPa 0,0 l/m 11,3 km/h (2 Bft) S-SO22.5 160 0 min 0 W/m
16.02.2017 07:54 6,2 C 80 % 1029,9 hPa 0,0 l/m 11,0 km/h (2 Bft) S-SO22.5 160 0 min 0 W/m
16.02.2017 07:59 6,1 C 80 % 1029,9 hPa 0,0 l/m 10,2 km/h (2 Bft) S-SO22.5 160 0 min 0 W/m
16.02.2017 08:04 6,0 C 80 % 1029,9 hPa 0,0 l/m 8,7 km/h (2 Bft) S-SO22.5 160 0 min 0 W/m
16.02.2017 08:09 6,0 C 80 % 1029,9 hPa 0,0 l/m 8,9 km/h (2 Bft) S22.5 170 0 min 0 W/m
16.02.2017 08:14 6,0 C 80 % 1029,9 hPa 0,0 l/m 10,0 km/h (2 Bft) S-SO22.5 155 0 min 0 W/m
16.02.2017 08:19 5,9 C 81 % 1029,9 hPa 0,0 l/m 11,9 km/h (2 Bft) S-SO22.5 155 0 min 0 W/m
16.02.2017 08:24 6,0 C 81 % 1029,9 hPa 0,0 l/m 10,9 km/h (2 Bft) S-SO22.5 155 0 min 0 W/m
16.02.2017 08:29 6,0 C 81 % 1029,9 hPa 0,0 l/m 9,4 km/h (2 Bft) S-SO22.5 155 0 min 0 W/m
16.02.2017 08:34 6,1 C 80 % 1029,9 hPa 0,0 l/m 8,0 km/h (2 Bft) S-SO22.5 160 0 min 0 W/m
16.02.2017 08:39 6,0 C 80 % 1029,9 hPa 0,0 l/m 10,1 km/h (2 Bft) S-SO22.5 160 0 min 0 W/m
16.02.2017 08:44 6,1 C 80 % 1029,9 hPa 0,0 l/m 8,9 km/h (2 Bft) S-SO22.5 160 0 min 0 W/m
16.02.2017 08:49 6,1 C 80 % 1029,9 hPa 0,0 l/m 6,7 km/h (2 Bft) S-SO22.5 150 0 min 0 W/m
16.02.2017 08:54 6,2 C 80 % 1029,9 hPa 0,0 l/m 11,2 km/h (2 Bft) S-SO45 160 0 min 0 W/m
16.02.2017 08:59 6,3 C 80 % 1029,9 hPa 0,0 l/m 10,8 km/h (2 Bft) S-SO22.5 160 0 min 0 W/m
16.02.2017 09:04 6,4 C 80 % 1028,9 hPa 0,0 l/m 8,7 km/h (2 Bft) S-SO22.5 160 0 min 0 W/m
16.02.2017 09:09 6,6 C 80 % 1028,9 hPa 0,0 l/m 9,2 km/h (2 Bft) S-SO22.5 160 0 min 0 W/m
16.02.2017 09:14 6,7 C 80 % 1028,9 hPa 0,0 l/m 7,9 km/h (2 Bft) S-SO22.5 160 0 min 0 W/m
16.02.2017 09:19 6,8 C 80 % 1028,9 hPa 0,0 l/m 6,7 km/h (2 Bft) S-SO 165 0 min 0 W/m
16.02.2017 09:24 6,9 C 79 % 1028,9 hPa 0,0 l/m 9,5 km/h (2 Bft) S 170 0 min 0 W/m
16.02.2017 09:29 7,0 C 79 % 1028,9 hPa 0,0 l/m 8,5 km/h (2 Bft) S 170 0 min 0 W/m
16.02.2017 09:34 7,1 C 79 % 1028,9 hPa 0,0 l/m 8,2 km/h (2 Bft) S 170 0 min 0 W/m
16.02.2017 09:39 7,2 C 79 % 1028,9 hPa 0,0 l/m 7,4 km/h (2 Bft) S22.5 185 0 min 0 W/m
16.02.2017 09:44 7,2 C 79 % 1028,9 hPa 0,0 l/m 7,2 km/h (2 Bft) S 185 0 min 0 W/m
16.02.2017 09:50 7,4 C 79 % 1028,9 hPa 0,0 l/m 6,3 km/h (2 Bft) S 185 0 min 0 W/m
16.02.2017 09:54 7,5 C 79 % 1028,9 hPa 0,0 l/m 8,5 km/h (2 Bft) S-SO22.5 160 0 min 0 W/m
16.02.2017 09:59 7,5 C 78 % 1028,9 hPa 0,0 l/m 8,2 km/h (2 Bft) S-SO22.5 160 0 min 0 W/m
16.02.2017 10:04 7,7 C 78 % 1028,9 hPa 0,0 l/m 9,6 km/h (2 Bft) S-SO22.5 165 0 min 0 W/m
16.02.2017 10:09 7,8 C 78 % 1028,9 hPa 0,0 l/m 8,4 km/h (2 Bft) S-SO22.5 155 0 min 0 W/m
16.02.2017 10:14 8,0 C 78 % 1028,9 hPa 0,0 l/m 11,6 km/h (2 Bft) S-SO22.5 160 0 min 0 W/m
16.02.2017 10:19 8,1 C 77 % 1028,9 hPa 0,0 l/m 8,1 km/h (2 Bft) S-SO22.5 160 0 min 0 W/m
16.02.2017 10:24 8,2 C 77 % 1028,9 hPa 0,0 l/m 9,6 km/h (2 Bft) S-SO22.5 155 0 min 0 W/m
16.02.2017 10:29 8,4 C 77 % 1028,9 hPa 0,0 l/m 9,7 km/h (2 Bft) S-SO22.5 160 0 min 0 W/m
16.02.2017 10:34 8,6 C 77 % 1028,9 hPa 0,0 l/m 9,4 km/h (2 Bft) S-SO22.5 155 0 min 0 W/m
16.02.2017 10:39 8,8 C 76 % 1028,9 hPa 0,0 l/m 9,1 km/h (2 Bft) S-SO22.5 155 5 min 0 W/m
16.02.2017 10:44 9,2 C 76 % 1028,9 hPa 0,0 l/m 9,8 km/h (2 Bft) S-SO22.5 165 5 min 0 W/m
16.02.2017 10:49 9,6 C 76 % 1028,8 hPa 0,0 l/m 8,3 km/h (2 Bft) S22.5 180 5 min 0 W/m
16.02.2017 10:54 10,0 C 75 % 1028,8 hPa 0,0 l/m 10,7 km/h (2 Bft) SW22.5 215 5 min 0 W/m
16.02.2017 10:59 10,2 C 76 % 1028,8 hPa 0,0 l/m 14,7 km/h (3 Bft) S-SW22.5 210 5 min 0 W/m
16.02.2017 11:04 10,4 C 76 % 1028,8 hPa 0,0 l/m 11,0 km/h (2 Bft) SW22.5 220 5 min 0 W/m
16.02.2017 11:09 10,4 C 76 % 1028,8 hPa 0,0 l/m 18,1 km/h (3 Bft) SW67.5 220 5 min 0 W/m
16.02.2017 11:14 10,5 C 76 % 1028,8 hPa 0,0 l/m 15,0 km/h (3 Bft) SW45 220 5 min 0 W/m
16.02.2017 11:19 10,8 C 76 % 1028,8 hPa 0,0 l/m 20,9 km/h (4 Bft) W-SW45 240 5 min 0 W/m
16.02.2017 11:24 10,8 C 76 % 1028,8 hPa 0,0 l/m 19,9 km/h (4 Bft) W-SW45 245 5 min 0 W/m
16.02.2017 11:29 10,8 C 76 % 1028,8 hPa 0,0 l/m 14,2 km/h (3 Bft) SW45 225 5 min 0 W/m
16.02.2017 11:34 11,0 C 76 % 1028,8 hPa 0,0 l/m 19,3 km/h (3 Bft) SW45 225 5 min 0 W/m
16.02.2017 11:39 11,1 C 76 % 1028,8 hPa 0,0 l/m 19,2 km/h (3 Bft) W-SW45 245 0 min 0 W/m
16.02.2017 11:44 11,2 C 75 % 1028,8 hPa 0,0 l/m 20,8 km/h (4 Bft) W-SW45 240 0 min 0 W/m
16.02.2017 11:49 11,2 C 76 % 1028,8 hPa 0,0 l/m 21,6 km/h (4 Bft) W45 265 5 min 0 W/m
16.02.2017 11:54 11,2 C 75 % 1028,8 hPa 0,0 l/m 15,8 km/h (3 Bft) W45 260 5 min 0 W/m
16.02.2017 11:59 11,4 C 75 % 1028,8 hPa 0,0 l/m 20,5 km/h (4 Bft) W-SW45 255 5 min 0 W/m
16.02.2017 12:04 11,5 C 75 % 1028,8 hPa 0,0 l/m 17,1 km/h (3 Bft) W-SW45 250 5 min 0 W/m
16.02.2017 12:09 11,3 C 74 % 1028,8 hPa 0,0 l/m 21,4 km/h (4 Bft) SW22.5 235 0 min 0 W/m
16.02.2017 12:14 11,3 C 73 % 1028,8 hPa 0,0 l/m 19,9 km/h (4 Bft) SW67.5 220 5 min 0 W/m
16.02.2017 12:19 11,4 C 74 % 1028,8 hPa 0,0 l/m 19,0 km/h (3 Bft) W-SW45 240 0 min 0 W/m
16.02.2017 12:24 11,7 C 73 % 1028,8 hPa 0,0 l/m 20,0 km/h (4 Bft) SW67.5 225 5 min 0 W/m
16.02.2017 12:29 11,9 C 71 % 1028,8 hPa 0,0 l/m 22,1 km/h (4 Bft) W-SW22.5 255 5 min 0 W/m
16.02.2017 12:34 12,0 C 70 % 1027,8 hPa 0,0 l/m 23,3 km/h (4 Bft) W22.5 265 5 min 0 W/m
16.02.2017 12:39 12,3 C 69 % 1027,8 hPa 0,0 l/m 20,8 km/h (4 Bft) W22.5 270 5 min 0 W/m
16.02.2017 12:44 12,0 C 67 % 1027,8 hPa 0,0 l/m 22,3 km/h (4 Bft) W-SW22.5 255 5 min 0 W/m
16.02.2017 12:49 12,1 C 66 % 1027,8 hPa 0,0 l/m 19,8 km/h (3 Bft) W-SW67.5 240 0 min 0 W/m
16.02.2017 12:54 11,9 C 66 % 1027,8 hPa 0,0 l/m 26,2 km/h (4 Bft) W22.5 275 0 min 0 W/m
16.02.2017 12:59 11,8 C 65 % 1027,8 hPa 0,0 l/m 27,4 km/h (5 Bft) W-SW45 255 0 min 0 W/m
16.02.2017 13:04 12,0 C 65 % 1027,8 hPa 0,0 l/m 25,1 km/h (4 Bft) W45 265 5 min 0 W/m
16.02.2017 13:09 12,1 C 65 % 1027,8 hPa 0,0 l/m 25,0 km/h (4 Bft) SW67.5 225 5 min 0 W/m
16.02.2017 13:14 11,8 C 66 % 1027,8 hPa 0,0 l/m 23,9 km/h (4 Bft) W-SW45 240 0 min 0 W/m
16.02.2017 13:19 11,9 C 67 % 1027,8 hPa 0,0 l/m 21,8 km/h (4 Bft) W-SW22.5 245 5 min 0 W/m
16.02.2017 13:24 11,9 C 66 % 1027,8 hPa 0,0 l/m 23,0 km/h (4 Bft) W22.5 260 5 min 0 W/m
16.02.2017 13:29 11,9 C 65 % 1027,8 hPa 0,0 l/m 23,9 km/h (4 Bft) W22.5 275 0 min 0 W/m
16.02.2017 13:34 11,5 C 65 % 1027,8 hPa 0,0 l/m 26,1 km/h (4 Bft) W45 275 0 min 0 W/m
16.02.2017 13:39 11,4 C 65 % 1027,8 hPa 0,0 l/m 24,4 km/h (4 Bft) W-SW22.5 250 0 min 0 W/m
16.02.2017 13:44 11,3 C 65 % 1027,8 hPa 0,0 l/m 21,7 km/h (4 Bft) W22.5 260 0 min 0 W/m
16.02.2017 13:49 11,5 C 66 % 1027,8 hPa 0,0 l/m 19,8 km/h (3 Bft) W22.5 280 0 min 0 W/m
16.02.2017 13:55 11,6 C 66 % 1027,8 hPa 0,0 l/m 20,5 km/h (4 Bft) W67.5 265 6 min 0 W/m
16.02.2017 13:59 11,8 C 65 % 1027,8 hPa 0,0 l/m 22,9 km/h (4 Bft) W22.5 270 4 min 0 W/m
16.02.2017 14:04 11,9 C 65 % 1027,8 hPa 0,0 l/m 19,6 km/h (3 Bft) W22.5 270 0 min 0 W/m
16.02.2017 14:09 11,6 C 65 % 1027,8 hPa 0,0 l/m 20,4 km/h (4 Bft) W22.5 270 0 min 0 W/m
16.02.2017 14:14 11,6 C 64 % 1026,8 hPa 0,0 l/m 21,4 km/h (4 Bft) W-SW45 250 5 min 0 W/m
16.02.2017 14:19 11,8 C 64 % 1026,8 hPa 0,0 l/m 18,3 km/h (3 Bft) SW45 235 0 min 0 W/m
16.02.2017 14:24 11,9 C 64 % 1026,8 hPa 0,0 l/m 20,7 km/h (4 Bft) W-SW45 245 0 min 0 W/m
16.02.2017 14:29 11,8 C 64 % 1026,8 hPa 0,0 l/m 17,8 km/h (3 Bft) W-SW45 240 5 min 0 W/m
16.02.2017 14:34 12,0 C 64 % 1026,8 hPa 0,0 l/m 16,3 km/h (3 Bft) W-SW45 255 5 min 0 W/m
16.02.2017 14:40 12,3 C 65 % 1026,8 hPa 0,0 l/m 18,1 km/h (3 Bft) W-SW45 245 6 min 0 W/m
16.02.2017 14:44 12,4 C 65 % 1026,8 hPa 0,0 l/m 16,4 km/h (3 Bft) W22.5 270 4 min 0 W/m
16.02.2017 14:49 12,6 C 64 % 1026,8 hPa 0,0 l/m 19,0 km/h (3 Bft) W-SW45 245 5 min 0 W/m
16.02.2017 14:54 12,4 C 64 % 1026,8 hPa 0,0 l/m 19,8 km/h (3 Bft) W-SW45 240 5 min 0 W/m
16.02.2017 14:59 12,4 C 63 % 1026,8 hPa 0,0 l/m 26,0 km/h (4 Bft) SW67.5 235 5 min 0 W/m
16.02.2017 15:04 12,4 C 63 % 1026,8 hPa 0,0 l/m 23,0 km/h (4 Bft) SW45 230 5 min 0 W/m
16.02.2017 15:09 12,4 C 64 % 1026,8 hPa 0,0 l/m 26,7 km/h (4 Bft) SW45 230 5 min 0 W/m
16.02.2017 15:14 12,4 C 63 % 1026,8 hPa 0,0 l/m 26,1 km/h (4 Bft) SW45 230 5 min 0 W/m
16.02.2017 15:19 12,4 C 63 % 1026,8 hPa 0,0 l/m 26,9 km/h (4 Bft) W-SW22.5 240 5 min 0 W/m
16.02.2017 15:24 12,2 C 63 % 1026,8 hPa 0,0 l/m 24,8 km/h (4 Bft) SW45 230 5 min 0 W/m
16.02.2017 15:29 12,1 C 63 % 1026,8 hPa 0,0 l/m 23,5 km/h (4 Bft) W-SW45 240 5 min 0 W/m
16.02.2017 15:34 12,1 C 64 % 1026,8 hPa 0,0 l/m 26,1 km/h (4 Bft) SW45 235 0 min 0 W/m
16.02.2017 15:39 12,1 C 64 % 1026,8 hPa 0,0 l/m 21,6 km/h (4 Bft) W-SW45 245 0 min 0 W/m
16.02.2017 15:44 12,1 C 64 % 1026,8 hPa 0,0 l/m 15,9 km/h (3 Bft) W-SW22.5 240 0 min 0 W/m
16.02.2017 15:49 12,2 C 64 % 1025,8 hPa 0,0 l/m 18,3 km/h (3 Bft) SW45 220 0 min 0 W/m
16.02.2017 15:54 12,1 C 63 % 1025,8 hPa 0,0 l/m 15,5 km/h (3 Bft) W45 265 0 min 0 W/m
16.02.2017 15:59 11,8 C 64 % 1025,8 hPa 0,0 l/m 19,7 km/h (3 Bft) W-SW22.5 240 0 min 0 W/m
16.02.2017 16:04 11,5 C 66 % 1025,8 hPa 0,0 l/m 20,0 km/h (4 Bft) W-SW22.5 250 0 min 0 W/m
16.02.2017 16:09 11,4 C 66 % 1025,8 hPa 0,0 l/m 18,0 km/h (3 Bft) SW67.5 230 0 min 0 W/m
16.02.2017 16:14 11,6 C 65 % 1025,8 hPa 0,0 l/m 24,0 km/h (4 Bft) SW45 235 0 min 0 W/m
16.02.2017 16:19 11,8 C 65 % 1025,8 hPa 0,0 l/m 20,6 km/h (4 Bft) W-SW67.5 250 0 min 0 W/m
16.02.2017 16:24 11,8 C 65 % 1025,8 hPa 0,0 l/m 23,6 km/h (4 Bft) W22.5 270 0 min 0 W/m
16.02.2017 16:29 11,6 C 64 % 1025,8 hPa 0,0 l/m 28,4 km/h (5 Bft) W22.5 270 0 min 0 W/m
16.02.2017 16:34 11,5 C 65 % 1025,8 hPa 0,0 l/m 23,6 km/h (4 Bft) W22.5 265 0 min 0 W/m
16.02.2017 16:39 11,4 C 65 % 1025,8 hPa 0,0 l/m 21,0 km/h (4 Bft) W22.5 275 0 min 0 W/m
16.02.2017 16:44 11,4 C 65 % 1025,8 hPa 0,0 l/m 25,1 km/h (4 Bft) W-NW22.5 285 0 min 0 W/m
16.02.2017 16:49 11,2 C 66 % 1025,8 hPa 0,0 l/m 22,3 km/h (4 Bft) W-NW 285 0 min 0 W/m
16.02.2017 16:54 10,9 C 67 % 1025,8 hPa 0,0 l/m 20,7 km/h (4 Bft) W 280 0 min 0 W/m
16.02.2017 16:59 10,8 C 67 % 1025,8 hPa 0,0 l/m 21,7 km/h (4 Bft) W22.5 280 0 min 0 W/m
16.02.2017 17:04 10,8 C 67 % 1025,8 hPa 0,0 l/m 19,9 km/h (4 Bft) W-SW22.5 255 0 min 0 W/m
16.02.2017 17:09 10,8 C 67 % 1025,8 hPa 0,0 l/m 21,5 km/h (4 Bft) W-SW45 245 0 min 0 W/m
16.02.2017 17:14 10,7 C 67 % 1025,8 hPa 0,0 l/m 20,0 km/h (4 Bft) W-SW45 255 0 min 0 W/m
16.02.2017 17:20 10,4 C 68 % 1025,8 hPa 0,0 l/m 18,4 km/h (3 Bft) W22.5 275 0 min 0 W/m
16.02.2017 17:24 10,2 C 68 % 1025,8 hPa 0,0 l/m 17,3 km/h (3 Bft) W22.5 270 0 min 0 W/m
16.02.2017 17:29 10,1 C 68 % 1025,8 hPa 0,0 l/m 13,6 km/h (3 Bft) W 275 0 min 0 W/m
16.02.2017 17:34 9,7 C 69 % 1025,8 hPa 0,0 l/m 10,9 km/h (2 Bft) W 270 0 min 0 W/m
16.02.2017 17:39 9,5 C 69 % 1025,8 hPa 0,0 l/m 15,8 km/h (3 Bft) W 270 0 min 0 W/m
16.02.2017 17:44 9,5 C 69 % 1025,8 hPa 0,0 l/m 14,0 km/h (3 Bft) W22.5 280 0 min 0 W/m
16.02.2017 17:49 9,3 C 69 % 1025,8 hPa 0,0 l/m 14,6 km/h (3 Bft) W 275 0 min 0 W/m
16.02.2017 17:54 9,3 C 70 % 1025,8 hPa 0,0 l/m 7,9 km/h (2 Bft) W-NW 285 0 min 0 W/m
16.02.2017 17:59 9,3 C 70 % 1025,8 hPa 0,0 l/m 6,3 km/h (2 Bft) W-NW22.5 285 0 min 0 W/m
16.02.2017 18:04 9,3 C 69 % 1025,8 hPa 0,0 l/m 6,3 km/h (2 Bft) W-NW 285 0 min 0 W/m
16.02.2017 18:09 9,1 C 69 % 1025,8 hPa 0,0 l/m 6,3 km/h (2 Bft) W-NW 285 0 min 0 W/m
16.02.2017 18:14 9,0 C 70 % 1025,8 hPa 0,0 l/m 8,9 km/h (2 Bft) W-NW 295 0 min 0 W/m
16.02.2017 18:19 9,0 C 70 % 1025,8 hPa 0,0 l/m 12,3 km/h (2 Bft) W-NW 295 0 min 0 W/m
16.02.2017 18:24 9,1 C 70 % 1025,8 hPa 0,0 l/m 13,4 km/h (3 Bft) NW22.5 310 0 min 0 W/m
16.02.2017 18:29 9,0 C 71 % 1025,8 hPa 0,0 l/m 10,8 km/h (2 Bft) NW 305 0 min 0 W/m
16.02.2017 18:34 9,0 C 71 % 1025,8 hPa 0,0 l/m 12,0 km/h (2 Bft) NW 305 0 min 0 W/m
16.02.2017 18:39 8,8 C 72 % 1025,8 hPa 0,0 l/m 13,3 km/h (3 Bft) NW22.5 310 0 min 0 W/m
16.02.2017 18:44 9,0 C 74 % 1025,8 hPa 0,0 l/m 12,5 km/h (2 Bft) N-NW22.5 330 0 min 0 W/m
16.02.2017 18:49 8,9 C 74 % 1025,8 hPa 0,0 l/m 12,7 km/h (3 Bft) N-NW22.5 340 0 min 0 W/m
16.02.2017 18:54 8,9 C 74 % 1025,8 hPa 0,0 l/m 5,7 km/h (2 Bft) NW 325 0 min 0 W/m
16.02.2017 18:59 8,7 C 75 % 1025,8 hPa 0,0 l/m 3,6 km/h (1 Bft) N 350 0 min 0 W/m
16.02.2017 19:04 8,5 C 75 % 1025,9 hPa 0,0 l/m 9,1 km/h (2 Bft) N22.5 355 0 min 0 W/m
16.02.2017 19:09 8,4 C 75 % 1025,9 hPa 0,0 l/m 7,6 km/h (2 Bft) N 350 0 min 0 W/m
16.02.2017 19:14 8,2 C 75 % 1025,9 hPa 0,0 l/m 0,4 km/h (0 Bft) N 355 0 min 0 W/m
16.02.2017 19:19 8,0 C 75 % 1025,9 hPa 0,0 l/m 0,0 km/h (0 Bft) N 355 0 min 0 W/m
16.02.2017 19:24 8,0 C 75 % 1025,9 hPa 0,0 l/m 0,0 km/h (0 Bft) N 355 0 min 0 W/m
16.02.2017 19:29 7,6 C 75 % 1025,9 hPa 0,0 l/m 0,0 km/h (0 Bft) N 355 0 min 0 W/m
16.02.2017 19:34 7,5 C 75 % 1025,9 hPa 0,0 l/m 0,0 km/h (0 Bft) N 355 0 min 0 W/m
16.02.2017 19:39 7,4 C 76 % 1025,9 hPa 0,0 l/m 0,0 km/h (0 Bft) N 355 0 min 0 W/m
16.02.2017 19:44 7,2 C 76 % 1025,9 hPa 0,0 l/m 0,0 km/h (0 Bft) N 355 0 min 0 W/m
16.02.2017 19:49 7,2 C 76 % 1025,9 hPa 0,0 l/m 0,0 km/h (0 Bft) N 355 0 min 0 W/m
16.02.2017 19:54 7,2 C 77 % 1025,9 hPa 0,0 l/m 0,0 km/h (0 Bft) N 355 0 min 0 W/m
16.02.2017 19:59 7,2 C 77 % 1025,9 hPa 0,0 l/m 0,0 km/h (0 Bft) N 355 0 min 0 W/m
16.02.2017 20:04 7,2 C 77 % 1025,9 hPa 0,0 l/m 0,0 km/h (0 Bft) N 350 0 min 0 W/m
16.02.2017 20:09 7,2 C 78 % 1025,9 hPa 0,0 l/m 0,0 km/h (0 Bft) N 350 0 min 0 W/m
16.02.2017 20:14 7,2 C 77 % 1025,9 hPa 0,0 l/m 0,0 km/h (0 Bft) N 350 0 min 0 W/m
16.02.2017 20:19 7,1 C 77 % 1025,9 hPa 0,0 l/m 0,0 km/h (0 Bft) N 350 0 min 0 W/m
16.02.2017 20:25 7,1 C 79 % 1025,9 hPa 0,0 l/m 4,9 km/h (1 Bft) N 350 0 min 0 W/m
16.02.2017 20:29 7,1 C 80 % 1025,9 hPa 0,0 l/m 7,8 km/h (2 Bft) W-SW 255 0 min 0 W/m
16.02.2017 20:34 6,9 C 80 % 1025,9 hPa 0,0 l/m 10,1 km/h (2 Bft) W22.5 260 0 min 0 W/m
16.02.2017 20:39 6,7 C 80 % 1025,9 hPa 0,0 l/m 9,6 km/h (2 Bft) W-SW 250 0 min 0 W/m
16.02.2017 20:44 6,7 C 80 % 1025,9 hPa 0,0 l/m 11,9 km/h (2 Bft) W-SW22.5 255 0 min 0 W/m
16.02.2017 20:49 6,7 C 81 % 1025,9 hPa 0,0 l/m 12,1 km/h (2 Bft) W-SW 255 0 min 0 W/m
16.02.2017 20:54 6,8 C 82 % 1025,9 hPa 0,0 l/m 12,1 km/h (2 Bft) W-SW22.5 240 0 min 0 W/m
16.02.2017 20:59 6,7 C 81 % 1025,9 hPa 0,0 l/m 13,8 km/h (3 Bft) W-SW22.5 245 0 min 0 W/m
16.02.2017 21:04 6,6 C 82 % 1025,9 hPa 0,0 l/m 12,1 km/h (2 Bft) W22.5 260 0 min 0 W/m
16.02.2017 21:09 6,7 C 82 % 1025,9 hPa 0,0 l/m 12,2 km/h (2 Bft) W22.5 270 0 min 0 W/m
16.02.2017 21:14 6,5 C 82 % 1025,9 hPa 0,0 l/m 12,3 km/h (2 Bft) W 270 0 min 0 W/m
16.02.2017 21:19 6,5 C 82 % 1025,9 hPa 0,0 l/m 11,6 km/h (2 Bft) W 265 0 min 0 W/m
16.02.2017 21:24 6,5 C 82 % 1025,9 hPa 0,0 l/m 13,3 km/h (3 Bft) W-SW22.5 245 0 min 0 W/m
16.02.2017 21:29 6,5 C 82 % 1025,9 hPa 0,0 l/m 13,0 km/h (3 Bft) W-SW22.5 245 0 min 0 W/m
16.02.2017 21:34 6,5 C 82 % 1025,9 hPa 0,0 l/m 12,2 km/h (2 Bft) W-SW22.5 240 0 min 0 W/m
16.02.2017 21:39 6,6 C 82 % 1025,9 hPa 0,0 l/m 14,6 km/h (3 Bft) W-SW22.5 245 0 min 0 W/m
16.02.2017 21:44 6,6 C 82 % 1025,9 hPa 0,0 l/m 13,3 km/h (3 Bft) W-SW22.5 255 0 min 0 W/m
16.02.2017 21:49 6,6 C 82 % 1025,9 hPa 0,0 l/m 13,1 km/h (3 Bft) W-SW22.5 255 0 min 0 W/m
16.02.2017 21:54 6,7 C 82 % 1025,9 hPa 0,0 l/m 15,0 km/h (3 Bft) W22.5 270 0 min 0 W/m
16.02.2017 21:59 6,7 C 82 % 1025,9 hPa 0,0 l/m 14,5 km/h (3 Bft) W 270 0 min 0 W/m
16.02.2017 22:04 6,7 C 82 % 1025,9 hPa 0,0 l/m 18,3 km/h (3 Bft) W-NW22.5 285 0 min 0 W/m
16.02.2017 22:09 6,8 C 82 % 1025,9 hPa 0,0 l/m 16,5 km/h (3 Bft) W-NW22.5 290 0 min 0 W/m
16.02.2017 22:15 6,7 C 82 % 1025,9 hPa 0,0 l/m 15,4 km/h (3 Bft) W-NW22.5 295 0 min 0 W/m
16.02.2017 22:19 6,8 C 82 % 1025,9 hPa 0,0 l/m 16,7 km/h (3 Bft) W-NW22.5 290 0 min 0 W/m
16.02.2017 22:24 6,8 C 82 % 1025,9 hPa 0,0 l/m 16,3 km/h (3 Bft) W45 260 0 min 0 W/m
16.02.2017 22:29 6,9 C 82 % 1025,9 hPa 0,0 l/m 18,5 km/h (3 Bft) W22.5 265 0 min 0 W/m
16.02.2017 22:34 6,8 C 82 % 1025,9 hPa 0,0 l/m 16,0 km/h (3 Bft) W 280 0 min 0 W/m
16.02.2017 22:39 6,8 C 82 % 1025,9 hPa 0,0 l/m 16,2 km/h (3 Bft) W-NW 290 0 min 0 W/m
16.02.2017 22:44 6,8 C 82 % 1025,9 hPa 0,0 l/m 15,0 km/h (3 Bft) W-NW 285 0 min 0 W/m
16.02.2017 22:49 6,7 C 82 % 1025,9 hPa 0,0 l/m 18,5 km/h (3 Bft) W22.5 275 0 min 0 W/m
16.02.2017 22:54 6,8 C 83 % 1025,9 hPa 0,0 l/m 17,6 km/h (3 Bft) W-SW45 245 0 min 0 W/m
16.02.2017 22:59 6,8 C 83 % 1025,9 hPa 0,0 l/m 15,8 km/h (3 Bft) W-SW22.5 255 0 min 0 W/m
16.02.2017 23:04 6,8 C 83 % 1025,9 hPa 0,0 l/m 17,5 km/h (3 Bft) W-SW22.5 250 0 min 0 W/m
16.02.2017 23:09 6,8 C 83 % 1025,9 hPa 0,0 l/m 14,7 km/h (3 Bft) W-SW22.5 250 0 min 0 W/m
16.02.2017 23:14 6,8 C 83 % 1025,9 hPa 0,0 l/m 16,4 km/h (3 Bft) W22.5 260 0 min 0 W/m
16.02.2017 23:19 6,8 C 83 % 1025,9 hPa 0,0 l/m 16,3 km/h (3 Bft) W22.5 280 0 min 0 W/m
16.02.2017 23:25 6,7 C 83 % 1025,9 hPa 0,0 l/m 13,3 km/h (3 Bft) W 280 0 min 0 W/m
16.02.2017 23:29 6,7 C 83 % 1025,9 hPa 0,0 l/m 10,1 km/h (2 Bft) W 280 0 min 0 W/m
16.02.2017 23:34 6,6 C 83 % 1025,9 hPa 0,0 l/m 13,5 km/h (3 Bft) W22.5 275 0 min 0 W/m
16.02.2017 23:39 6,8 C 84 % 1025,9 hPa 0,0 l/m 17,8 km/h (3 Bft) W-SW45 250 0 min 0 W/m
16.02.2017 23:44 6,7 C 83 % 1025,9 hPa 0,0 l/m 13,8 km/h (3 Bft) W-SW22.5 240 0 min 0 W/m
16.02.2017 23:49 6,6 C 83 % 1025,9 hPa 0,0 l/m 16,3 km/h (3 Bft) W-SW22.5 245 0 min 0 W/m
16.02.2017 23:54 6,5 C 84 % 1025,9 hPa 0,0 l/m 13,0 km/h (3 Bft) W-SW22.5 240 0 min 0 W/m
16.02.2017 23:59 6,4 C 84 % 1025,9 hPa 0,0 l/m 14,3 km/h (3 Bft) SW22.5 235 0 min 0 W/m
_ Min-Zeit 08:19 14:59 15:49 - 02:25 - - - -
Minimum _ 5,9 C 63 % 1025,8 hPa - 0,0 km/h (0 Bft) - - - -
_ Max-Zeit 14:49 23:39 08:19 00:04 16:29 - - 13:55 00:04
Maximum _ 12,6 C 84 % 1029,9 hPa 0,0 l/m 28,4 km/h
W (5 Bft)
- - 6 min 0 W/m
Durchschnitt _ 8,6 C 74 % 1028,0 hPa #0,0 l/m 12,2 km/h (2 Bft) S-SO - #3:30 h 0 W/m